Location: Barrialote
(9.9333°N, 67.3500°W)
Time: 21:50:28
(UTC+00:00)

IGS 5A - Pass Details

Date: 18 April 2024
Orbit: 572 x 575 km, 97.4° (Epoch: 06 April)

Event Time Altitude Azimuth Distance (km) Brightness Sun altitude
Rises 23:22:58 0° 175° (S) 2,771 6.7 -11.2°
Reaches altitude 10° 23:25:08 10° 178° (S) 1,873 5.9 -11.7°
Maximum altitude 23:29:09 63° 259° (W) 640 3.9 -12.6°
Drops below altitude 10° 23:33:09 10° 341° (NNW) 1,870 6.5 -13.6°
Sets 23:35:19 0° 344° (NNW) 2,766 7.3 -14.1°
